• In Russia
  • List of Countries
  • For 7 days
  • Water Temperature
  • Weather Map
  • Weather Widgets
  • user-avatar
    Login

    Hourly Weather Vanadzor

    Today, 13 November, Wednesday

    Time Temperature Precipitation Wind Pressure Humidity
    00:00 +5°C° 0 mm 0 mps 638 mmHg 42%
    01:00 +5°C° 0 mm 0 mps 638 mmHg 43%
    02:00 +5°C° 0 mm 0 mps 638 mmHg 43%
    03:00 +4°C° 0 mm 0 mps 638 mmHg 44%
    04:00 +4°C° 0 mm 0 mps 638 mmHg 43%
    05:00 +4°C° 0 mm 0 mps 637 mmHg 43%
    06:00 +4°C° 0 mm 0 mps 637 mmHg 43%
    07:00 +5°C° 0 mm 0 mps 638 mmHg 40%
    08:00 +7°C° 0 mm 0 mps 638 mmHg 37%
    09:00 +8°C° 0 mm 0 mps 639 mmHg 34%
    10:00 +9°C° 0 mm 0 mps 639 mmHg 33%
    11:00 +11°C° 0 mm 1 mps 639 mmHg 31%
    12:00 +12°C° 0 mm 1 mps 639 mmHg 30%
    13:00 +12°C° 0 mm 1 mps 639 mmHg 33%
    14:00 +12°C° 0 mm 1 mps 638 mmHg 36%
    15:00 +11°C° 0 mm 1 mps 638 mmHg 40%
    16:00 +9°C° 0 mm 1 mps 638 mmHg 46%
    17:00 +8°C° 0 mm 1 mps 638 mmHg 52%
    18:00 +5°C° 0 mm 0 mps 637 mmHg 59%
    19:00 +5°C° 0 mm 0 mps 637 mmHg 59%
    20:00 +5°C° 0 mm 0 mps 637 mmHg 60%
    21:00 +4°C° 0 mm 0 mps 637 mmHg 61%
    22:00 +4°C° 0 mm 0 mps 637 mmHg 62%
    23:00 +4°C° 0 mm 0 mps 637 mmHg 64%

    Tomorrow, 14 November, Thursday

    Time Temperature Precipitation Wind Pressure Humidity
    00:00 +3°C° 0 mm 0 mps 637 mmHg 65%
    01:00 +3°C° 0 mm 0 mps 637 mmHg 63%
    02:00 +3°C° 0 mm 0 mps 637 mmHg 61%
    03:00 +3°C° 0 mm 0 mps 636 mmHg 58%
    04:00 +3°C° 0 mm 0 mps 636 mmHg 56%
    05:00 +3°C° 0 mm 0 mps 636 mmHg 53%
    06:00 +4°C° 0 mm 1 mps 636 mmHg 50%
    07:00 +5°C° 0 mm 0 mps 637 mmHg 44%
    08:00 +6°C° 0 mm 0 mps 638 mmHg 38%
    09:00 +8°C° 0 mm 0 mps 639 mmHg 32%
    10:00 +10°C° 0 mm 1 mps 639 mmHg 32%
    11:00 +11°C° 0 mm 1 mps 638 mmHg 32%
    12:00 +12°C° 0 mm 2 mps 638 mmHg 32%
    13:00 +12°C° 0 mm 2 mps 638 mmHg 35%
    14:00 +12°C° 0 mm 1 mps 638 mmHg 38%
    15:00 +11°C° 0 mm 1 mps 638 mmHg 42%
    16:00 +10°C° 0 mm 1 mps 637 mmHg 50%
    17:00 +8°C° 0 mm 1 mps 637 mmHg 59%
    18:00 +5°C° 0 mm 0 mps 636 mmHg 67%
    19:00 +4°C° 0 mm 0 mps 637 mmHg 66%
    20:00 +4°C° 0 mm 0 mps 637 mmHg 65%
    21:00 +4°C° 0 mm 0 mps 637 mmHg 64%
    22:00 +3°C° 0 mm 0 mps 637 mmHg 64%
    23:00 +3°C° 0 mm 0 mps 637 mmHg 63%

    Day after tomorrow, 15 November, Friday

    Time Temperature Precipitation Wind Pressure Humidity
    00:00 +3°C° 0 mm 0 mps 637 mmHg 63%
    01:00 +3°C° 0 mm 0 mps 637 mmHg 59%
    02:00 +3°C° 0 mm 0 mps 636 mmHg 55%
    03:00 +3°C° 0 mm 0 mps 636 mmHg 52%
    04:00 +3°C° 0 mm 0 mps 636 mmHg 48%
    05:00 +3°C° 0 mm 0 mps 636 mmHg 45%
    06:00 +3°C° 0 mm 0 mps 636 mmHg 42%
    07:00 +4°C° 0 mm 0 mps 637 mmHg 39%
    08:00 +7°C° 0 mm 1 mps 637 mmHg 35%
    09:00 +9°C° 0 mm 1 mps 638 mmHg 32%
    10:00 +9°C° 0 mm 1 mps 638 mmHg 34%
    11:00 +9°C° 0 mm 2 mps 638 mmHg 36%
    12:00 +9°C° 0 mm 2 mps 638 mmHg 38%
    13:00 +9°C° 0 mm 2 mps 638 mmHg 43%
    14:00 +9°C° 0 mm 2 mps 637 mmHg 48%
    15:00 +8°C° 0 mm 2 mps 637 mmHg 53%
    16:00 +6°C° 0 mm 2 mps 637 mmHg 65%
    17:00 +4°C° 0 mm 2 mps 637 mmHg 76%
    18:00 +3°C° 0 mm 2 mps 636 mmHg 88%
    19:00 +2°C° 0 mm 2 mps 637 mmHg 88%
    20:00 +2°C° 0 mm 2 mps 637 mmHg 88%
    21:00 +2°C° 0 mm 2 mps 637 mmHg 88%
    22:00 +1°C° 0 mm 2 mps 637 mmHg 87%
    23:00 +1°C° 0 mm 2 mps 638 mmHg 87%

    16 November, Saturday

    Time Temperature Precipitation Wind Pressure Humidity
    00:00 +2°C° 0 mm 1 mps 638 mmHg 86%
    01:00 +2°C° 0 mm 1 mps 638 mmHg 85%
    02:00 +1°C° 0 mm 1 mps 638 mmHg 85%
    03:00 +1°C° 0 mm 1 mps 638 mmHg 85%
    04:00 +1°C° 0 mm 1 mps 638 mmHg 85%
    05:00 +1°C° 0 mm 1 mps 637 mmHg 85%
    06:00 +1°C° 0 mm 1 mps 637 mmHg 85%
    07:00 +1°C° 0 mm 1 mps 638 mmHg 82%
    08:00 -1°C° 0 mm 2 mps 638 mmHg 79%
    09:00 +1°C° 0 mm 2 mps 639 mmHg 76%
    10:00 +2°C° 0 mm 2 mps 639 mmHg 72%
    11:00 +2°C° 0 mm 2 mps 639 mmHg 68%
    12:00 +3°C° 0 mm 2 mps 639 mmHg 63%
    13:00 +3°C° 0 mm 2 mps 639 mmHg 65%
    14:00 +3°C° 0 mm 2 mps 639 mmHg 66%
    15:00 +3°C° 0 mm 2 mps 639 mmHg 67%
    16:00 +1°C° 0 mm 2 mps 639 mmHg 73%
    17:00 +1°C° 0 mm 1 mps 639 mmHg 80%
    18:00 0°C° 0 mm 1 mps 639 mmHg 86%
    19:00 0°C° 0 mm 1 mps 639 mmHg 85%
    20:00 0°C° 0 mm 1 mps 639 mmHg 84%
    21:00 0°C° 0 mm 1 mps 639 mmHg 84%
    22:00 -1°C° 0 mm 0 mps 639 mmHg 83%
    23:00 -2°C° 0 mm 0 mps 639 mmHg 81%

    17 November, Sunday

    Time Temperature Precipitation Wind Pressure Humidity
    00:00 -2°C° 0 mm 0 mps 639 mmHg 80%
    01:00 -2°C° 0 mm 0 mps 639 mmHg 79%
    02:00 -2°C° 0 mm 0 mps 639 mmHg 77%
    03:00 -2°C° 0 mm 0 mps 638 mmHg 75%
    04:00 -2°C° 0 mm 0 mps 638 mmHg 73%
    05:00 -2°C° 0 mm 0 mps 638 mmHg 71%
    06:00 -2°C° 0 mm 0 mps 638 mmHg 69%
    07:00 -1°C° 0 mm 0 mps 638 mmHg 64%
    08:00 +1°C° 0 mm 1 mps 639 mmHg 59%
    09:00 +3°C° 0 mm 1 mps 640 mmHg 53%
    10:00 +3°C° 0 mm 1 mps 639 mmHg 53%
    11:00 +3°C° 0 mm 2 mps 639 mmHg 52%
    12:00 +4°C° 0 mm 2 mps 639 mmHg 52%
    13:00 +3°C° 0 mm 2 mps 639 mmHg 57%
    14:00 +3°C° 0 mm 2 mps 639 mmHg 62%
    15:00 +2°C° 0 mm 2 mps 638 mmHg 67%
    16:00 +1°C° 0 mm 2 mps 638 mmHg 74%
    17:00 -1°C° 0 mm 2 mps 638 mmHg 80%
    18:00 0°C° 0 mm 1 mps 638 mmHg 87%
    19:00 0°C° 0 mm 1 mps 639 mmHg 86%
    20:00 0°C° 0 mm 1 mps 639 mmHg 85%
    21:00 0°C° 0 mm 1 mps 639 mmHg 84%
    22:00 -1°C° 0 mm 1 mps 639 mmHg 85%
    23:00 -1°C° 0 mm 1 mps 639 mmHg 85%

    18 November, Monday

    Time Temperature Precipitation Wind Pressure Humidity
    00:00 -1°C° 0 mm 1 mps 639 mmHg 85%
    01:00 -1°C° 0 mm 1 mps 639 mmHg 85%
    02:00 -2°C° 0 mm 1 mps 639 mmHg 86%
    03:00 -3°C° 0 mm 0 mps 638 mmHg 86%
    04:00 -3°C° 0 mm 0 mps 638 mmHg 83%
    05:00 -2°C° 0 mm 0 mps 638 mmHg 81%
    06:00 -2°C° 0 mm 0 mps 638 mmHg 78%
    07:00 -1°C° 0 mm 0 mps 638 mmHg 71%
    08:00 0°C° 0 mm 0 mps 639 mmHg 64%
    09:00 +1°C° 0 mm 0 mps 639 mmHg 57%
    10:00 +3°C° 0 mm 1 mps 639 mmHg 54%
    11:00 +4°C° 0 mm 1 mps 639 mmHg 51%
    12:00 +4°C° 0 mm 2 mps 638 mmHg 48%
    13:00 +4°C° 0 mm 2 mps 638 mmHg 50%
    14:00 +4°C° 0 mm 2 mps 638 mmHg 51%
    15:00 +4°C° 0 mm 2 mps 637 mmHg 53%
    16:00 +3°C° 0 mm 1 mps 637 mmHg 61%
    17:00 +2°C° 0 mm 1 mps 637 mmHg 70%
    18:00 -1°C° 0 mm 0 mps 637 mmHg 79%
    19:00 -1°C° 0 mm 0 mps 637 mmHg 79%
    20:00 -1°C° 0 mm 0 mps 637 mmHg 79%
    21:00 -1°C° 0 mm 0 mps 637 mmHg 79%
    22:00 -1°C° 0 mm 0 mps 637 mmHg 78%
    23:00 -1°C° 0 mm 0 mps 636 mmHg 77%
    Show more